Dauntless Aviation
Airports North America Canada
CYLW
YLW

Kelowna International Airport

Kelowna, CANADA

Airport Info
Suggest Updated Information for this Airport

Location

Latitude / Longitude: 49°57'21"N / 119°22'40"W
  49°57.366'N / 119°22.68'W
  49.9561 / -119.3780

Nearby radio navigation aids

EX RUTLAND NDB. 335.5° 1.0nm from EX to field.
LW KELOWNA NDB. 147.1° 6.5nm from LW to field.

Runway Information

Runway 16 /34

Dimensions: 7300 x 200 ft.
Surface: ASP
 
Runway 16
Runway 34
Latitude: 49.966 49.946278
Longitude: -119.378961 -119.376461
Elevation: 1409 ft. 1409 ft.
Runway true heading: 166.6 346.6
 

Instrument Procedures

  Airport Diagram
  Parking Areas (Apron 1)
  Parking Areas (Apron 3)
Satellite photo at:
Airport distance calculator
From:
Weather Reports

METAR

CYLW

CYLW 121300Z AUTO 15006KT 9SM OVC019 M01/M04 A3057 RMK SLP377
CWJV
17.4nm N
CWJV 121300Z AUTO 09004KT M03/M05 RMK AO1 SLP366 T10341046 55004
CWUS
25.6nm S
CWUS 121300Z AUTO 17003KT M02/M05 RMK AO1 SLP377 T10161048 55004
CYYF
30.4nm S
CYYF 121300Z 18012KT 15SM OVC025 M00/M04 A3060 RMK SC8 SLP382

TAF

CYLW
TAF CYLW 121238Z 1213/1301 18006KT P6SM OVC020 TEMPO 1220/1301 SCT020 RMK FCST BASED ON AUTO OBS. NXT FCST BY 121900Z
CYYF
30.4nm S
TAF CYYF 121238Z 1213/1301 18012G22KT P6SM OVC025 TEMPO 1213/1219 OVC020 FM121900 18010G20KT P6SM SCT025 BKN140 TEMPO 1219/1301 BKN025 RMK NXT FCST BY 121900Z
Safelog

 

Dauntless Aviation

© 2007-2017 Dauntless Aviation, all rights reserved
Information provided via PilotNav comes from a variety of official and unofficial data sources. As errors are possible, do not use PilotNav for primary flight planning purposes. Verify any information that you receive via PilotNav with current and canonical charts and other official documents. The material in this database is subject to database copyrights held by Dauntless Aviation and may not be copied without the express permission of Dauntless Aviation - licenses for use of part of all of this data are available for purchase; enquire via the Dauntless Aviation helpdesk. A number of mechanisms and markers exist in the database to protect against and identify infringement / copyright. Automated queries against this website are stictly prohibited, and all activity is logged and analyzed.